When you browse on this site, cookies collect data to enhance your experience and personalize the content and advertising you see.
Visit our Privacy Policy to learn more. By continuing to use the site, you agree to this use of cookies and data.
  • în România
  • Lista ţărilor
  • Pe 7 zile
  • Temperatura apei
  • Hartă satelitară
  • Meteo pe hartă
  • Widget-uri
  • user-avatar
    Intrare

    Meteo pe oră la Matlock

    Astăzi, 19 Iunie, Miercuri

    Timp Temperatura Precipitaţii Vânt Presiune Umiditate
    00:00 +12°C° 0 mm 0 m/s 741 mmHg 94%
    01:00 +11°C° 0 mm 0 m/s 741 mmHg 94%
    02:00 +11°C° 0 mm 0 m/s 740 mmHg 94%
    03:00 +11°C° 0 mm 0 m/s 740 mmHg 94%
    04:00 +12°C° 0 mm 0 m/s 740 mmHg 93%
    05:00 +12°C° 0 mm 0 m/s 740 mmHg 92%
    06:00 +14°C° 0 mm 1 m/s 740 mmHg 94%
    07:00 +14°C° 0.1 mm 1 m/s 739 mmHg 93%
    08:00 +14°C° 0.1 mm 1 m/s 739 mmHg 93%
    09:00 +14°C° 0.1 mm 1 m/s 739 mmHg 92%
    10:00 +15°C° 0.1 mm 1 m/s 739 mmHg 89%
    11:00 +15°C° 0.1 mm 1 m/s 739 mmHg 86%
    12:00 +18°C° 0 mm 1 m/s 740 mmHg 80%
    13:00 +18°C° 0.2 mm 1 m/s 739 mmHg 77%
    14:00 +18°C° 0.2 mm 2 m/s 739 mmHg 74%
    15:00 +18°C° 0.2 mm 2 m/s 739 mmHg 72%
    16:00 +18°C° 0.1 mm 2 m/s 739 mmHg 73%
    17:00 +18°C° 0.1 mm 3 m/s 739 mmHg 75%
    18:00 +17°C° 0.1 mm 3 m/s 739 mmHg 77%
    19:00 +16°C° 0 mm 3 m/s 739 mmHg 77%
    20:00 +13°C° 0 mm 3 m/s 739 mmHg 77%
    21:00 +11°C° 0 mm 3 m/s 739 mmHg 78%
    22:00 +12°C° 0 mm 2 m/s 740 mmHg 78%
    23:00 +10°C° 0 mm 2 m/s 740 mmHg 78%

    Mâine, 20 Iunie, Joi

    Timp Temperatura Precipitaţii Vânt Presiune Umiditate
    00:00 +10°C° 0 mm 2 m/s 740 mmHg 78%
    01:00 +9°C° 0 mm 2 m/s 740 mmHg 82%
    02:00 +8°C° 0 mm 2 m/s 740 mmHg 87%
    03:00 +8°C° 0 mm 3 m/s 740 mmHg 92%
    04:00 +9°C° 0 mm 3 m/s 740 mmHg 91%
    05:00 +9°C° 0 mm 3 m/s 740 mmHg 90%
    06:00 +10°C° 0 mm 3 m/s 740 mmHg 89%
    07:00 +11°C° 0.1 mm 4 m/s 741 mmHg 86%
    08:00 +12°C° 0.1 mm 4 m/s 741 mmHg 82%
    09:00 +13°C° 0.1 mm 4 m/s 741 mmHg 79%
    10:00 +13°C° 0.2 mm 4 m/s 742 mmHg 77%
    11:00 +13°C° 0.2 mm 4 m/s 742 mmHg 75%
    12:00 +14°C° 0.2 mm 4 m/s 742 mmHg 73%
    13:00 +14°C° 0.2 mm 5 m/s 742 mmHg 71%
    14:00 +14°C° 0.2 mm 5 m/s 742 mmHg 70%
    15:00 +15°C° 0.2 mm 5 m/s 742 mmHg 68%
    16:00 +14°C° 0 mm 4 m/s 742 mmHg 69%
    17:00 +14°C° 0 mm 4 m/s 743 mmHg 69%
    18:00 +14°C° 0 mm 4 m/s 743 mmHg 70%
    19:00 +12°C° 0 mm 3 m/s 743 mmHg 74%
    20:00 +11°C° 0 mm 3 m/s 744 mmHg 78%
    21:00 +9°C° 0 mm 3 m/s 744 mmHg 82%
    22:00 +8°C° 0 mm 3 m/s 744 mmHg 85%
    23:00 +8°C° 0 mm 3 m/s 744 mmHg 87%

    Poimâine, 21 Iunie, Vineri

    Timp Temperatura Precipitaţii Vânt Presiune Umiditate
    00:00 +7°C° 0 mm 3 m/s 745 mmHg 90%
    01:00 +7°C° 0 mm 2 m/s 745 mmHg 91%
    02:00 +7°C° 0 mm 2 m/s 745 mmHg 92%
    03:00 +6°C° 0 mm 2 m/s 745 mmHg 93%
    04:00 +7°C° 0 mm 3 m/s 746 mmHg 92%
    05:00 +8°C° 0 mm 3 m/s 746 mmHg 90%
    06:00 +9°C° 0 mm 3 m/s 746 mmHg 89%
    07:00 +10°C° 0 mm 4 m/s 746 mmHg 83%
    08:00 +12°C° 0 mm 4 m/s 747 mmHg 78%
    09:00 +13°C° 0 mm 4 m/s 747 mmHg 73%
    10:00 +14°C° 0.1 mm 4 m/s 748 mmHg 70%
    11:00 +14°C° 0.1 mm 4 m/s 748 mmHg 66%
    12:00 +15°C° 0.1 mm 4 m/s 748 mmHg 63%
    13:00 +15°C° 0 mm 4 m/s 748 mmHg 63%
    14:00 +15°C° 0 mm 4 m/s 748 mmHg 62%
    15:00 +15°C° 0 mm 4 m/s 749 mmHg 62%
    16:00 +16°C° 0 mm 3 m/s 749 mmHg 65%
    17:00 +16°C° 0 mm 3 m/s 749 mmHg 67%
    18:00 +16°C° 0 mm 2 m/s 749 mmHg 69%
    19:00 +14°C° 0 mm 2 m/s 749 mmHg 73%
    20:00 +12°C° 0 mm 2 m/s 750 mmHg 76%
    21:00 +11°C° 0 mm 1 m/s 750 mmHg 79%
    22:00 +10°C° 0 mm 1 m/s 750 mmHg 79%
    23:00 +9°C° 0 mm 1 m/s 750 mmHg 79%

    22 Iunie, Sâmbătă

    Timp Temperatura Precipitaţii Vânt Presiune Umiditate
    00:00 +8°C° 0 mm 0 m/s 750 mmHg 79%
    01:00 +8°C° 0 mm 0 m/s 750 mmHg 80%
    02:00 +7°C° 0 mm 0 m/s 750 mmHg 81%
    03:00 +7°C° 0 mm 0 m/s 750 mmHg 82%
    04:00 +8°C° 0 mm 0 m/s 750 mmHg 81%
    05:00 +9°C° 0 mm 0 m/s 750 mmHg 80%
    06:00 +10°C° 0 mm 0 m/s 750 mmHg 78%
    07:00 +13°C° 0 mm 1 m/s 751 mmHg 75%
    08:00 +14°C° 0 mm 1 m/s 751 mmHg 72%
    09:00 +16°C° 0 mm 1 m/s 751 mmHg 68%
    10:00 +16°C° 0 mm 2 m/s 751 mmHg 65%
    11:00 +17°C° 0 mm 2 m/s 751 mmHg 62%
    12:00 +18°C° 0 mm 2 m/s 750 mmHg 59%
    13:00 +18°C° 0 mm 2 m/s 750 mmHg 59%
    14:00 +19°C° 0 mm 2 m/s 750 mmHg 59%
    15:00 +19°C° 0 mm 2 m/s 750 mmHg 60%
    16:00 +19°C° 0.1 mm 2 m/s 750 mmHg 65%
    17:00 +18°C° 0.1 mm 2 m/s 749 mmHg 71%
    18:00 +18°C° 0.1 mm 2 m/s 749 mmHg 77%
    19:00 +17°C° 0.1 mm 2 m/s 750 mmHg 82%
    20:00 +14°C° 0.1 mm 3 m/s 750 mmHg 86%
    21:00 +13°C° 0.1 mm 3 m/s 750 mmHg 91%
    22:00 +12°C° 0.1 mm 3 m/s 750 mmHg 92%
    23:00 +12°C° 0.1 mm 2 m/s 750 mmHg 92%

    23 Iunie, Duminică

    Timp Temperatura Precipitaţii Vânt Presiune Umiditate
    00:00 +10°C° 0.1 mm 2 m/s 750 mmHg 93%
    01:00 +10°C° 0 mm 2 m/s 750 mmHg 93%
    02:00 +9°C° 0 mm 2 m/s 750 mmHg 93%
    03:00 +8°C° 0 mm 2 m/s 750 mmHg 93%
    04:00 +9°C° 0 mm 3 m/s 750 mmHg 92%
    05:00 +10°C° 0 mm 3 m/s 750 mmHg 92%
    06:00 +10°C° 0 mm 3 m/s 750 mmHg 92%
    07:00 +12°C° 0 mm 4 m/s 750 mmHg 90%
    08:00 +13°C° 0 mm 4 m/s 750 mmHg 88%
    09:00 +14°C° 0 mm 5 m/s 750 mmHg 86%
    10:00 +15°C° 0 mm 5 m/s 750 mmHg 82%
    11:00 +17°C° 0 mm 5 m/s 750 mmHg 79%
    12:00 +19°C° 0 mm 6 m/s 750 mmHg 75%
    13:00 +17°C° 0 mm 6 m/s 749 mmHg 77%
    14:00 +16°C° 0 mm 6 m/s 749 mmHg 79%
    15:00 +15°C° 0 mm 5 m/s 749 mmHg 80%
    16:00 +15°C° 0 mm 6 m/s 748 mmHg 81%
    17:00 +15°C° 0 mm 6 m/s 748 mmHg 81%
    18:00 +15°C° 0 mm 6 m/s 748 mmHg 82%
    19:00 +14°C° 0.1 mm 6 m/s 748 mmHg 86%
    20:00 +14°C° 0.1 mm 6 m/s 748 mmHg 90%
    21:00 +13°C° 0.1 mm 6 m/s 748 mmHg 94%
    22:00 +13°C° 0.3 mm 6 m/s 748 mmHg 95%
    23:00 +13°C° 0.3 mm 6 m/s 748 mmHg 95%

    24 Iunie, Luni

    Timp Temperatura Precipitaţii Vânt Presiune Umiditate
    00:00 +13°C° 0.3 mm 6 m/s 747 mmHg 96%
    01:00 +13°C° 0.6 mm 6 m/s 747 mmHg 96%
    02:00 +14°C° 0.6 mm 5 m/s 747 mmHg 97%
    03:00 +14°C° 0.6 mm 5 m/s 746 mmHg 97%
    04:00 +14°C° 1 mm 5 m/s 746 mmHg 97%
    05:00 +15°C° 1 mm 4 m/s 746 mmHg 97%
    06:00 +15°C° 1 mm 4 m/s 746 mmHg 97%
    07:00 +15°C° 0.7 mm 4 m/s 746 mmHg 98%
    08:00 +15°C° 0.7 mm 4 m/s 746 mmHg 98%
    09:00 +16°C° 0.7 mm 3 m/s 746 mmHg 98%
    10:00 +18°C° 0.2 mm 3 m/s 746 mmHg 96%
    11:00 +19°C° 0.2 mm 3 m/s 746 mmHg 95%
    12:00 +20°C° 0.2 mm 3 m/s 746 mmHg 94%
    13:00 +21°C° 0.7 mm 3 m/s 746 mmHg 89%
    14:00 +24°C° 0.7 mm 3 m/s 747 mmHg 84%
    15:00 +25°C° 0.7 mm 3 m/s 747 mmHg 80%
    16:00 +24°C° 0.9 mm 3 m/s 747 mmHg 81%
    17:00 +24°C° 0.9 mm 3 m/s 747 mmHg 83%
    18:00 +22°C° 0.9 mm 3 m/s 747 mmHg 85%
    19:00 +21°C° 0.3 mm 2 m/s 747 mmHg 87%
    20:00 +20°C° 0.3 mm 2 m/s 748 mmHg 89%
    21:00 +20°C° 0.3 mm 1 m/s 748 mmHg 91%
    22:00 +20°C° 0.2 mm 1 m/s 748 mmHg 92%
    23:00 +20°C° 0.2 mm 1 m/s 748 mmHg 92%
    Arată mai mult